Terug naar catalogus

DMSP 5D-2 F13 DEB

ActiefSSO
NORAD 40405·DEBRIS·🇺🇸 United States

Gelanceerd Mar 24, 1995 vanaf Vandenberg Space Force Base

Loading…

Volgende Passages (komende 24 uur)

TLE

VersSource: Space-Track

Epoch: Sep 14, 2026, 07:00 UTC

1 40405U 95015S   26257.29211683  .00001050  00000-0  47613-3 0  9997
2 40405  98.8659 281.0319 0122104  47.4095 313.7305 14.20145284595612

Volg DMSP 5D-2 F13 DEB in realtime met AllMySat

Download on the App Store